Time,TemperatureF,DewpointF,PressureIn,WindDirection,WindDirectionDegrees,WindSpeedMPH,WindSpeedGustMPH,Humidity,HourlyPrecipIn,Conditions,Clouds,dailyrainin,SoftwareType,DateUTC
2013-02-04 00:01:00,21.0,15.0,30.19,North,357,0.0,1.0,78,0.00,,,-99.99,,2013-02-04 07:01:00,
2013-02-04 00:11:00,21.0,15.0,30.17,North,358,0.0,1.0,78,0.00,,,-99.99,,2013-02-04 07:11:00,
2013-02-04 00:21:00,21.0,15.0,30.17,North,358,0.0,1.0,78,0.00,,,-99.99,,2013-02-04 07:21:00,
2013-02-04 00:31:00,21.0,15.0,30.17,North,358,0.0,1.0,78,0.00,,,-99.99,,2013-02-04 07:31:00,
2013-02-04 00:41:00,21.0,15.0,30.17,North,358,0.0,1.0,78,0.00,,,-99.99,,2013-02-04 07:41:00,
2013-02-04 00:52:00,21.0,15.0,30.16,North,358,0.0,1.0,78,0.00,,,-99.99,,2013-02-04 07:52:00,
2013-02-04 01:01:00,21.0,15.0,30.16,North,358,0.0,1.0,78,0.00,,,-99.99,,2013-02-04 08:01:00,
2013-02-04 01:11:00,21.0,15.0,30.16,North,358,0.0,1.0,78,0.00,,,-99.99,,2013-02-04 08:11:00,
2013-02-04 01:21:00,21.0,16.0,30.16,North,357,0.0,0.0,79,0.00,,,-99.99,,2013-02-04 08:21:00,
2013-02-04 01:31:00,21.0,16.0,30.16,North,357,0.0,0.0,79,0.00,,,-99.99,,2013-02-04 08:31:00,
2013-02-04 01:42:00,21.0,16.0,30.16,North,357,0.0,0.0,79,0.00,,,-99.99,,2013-02-04 08:42:00,
2013-02-04 01:52:00,20.0,15.0,30.16,North,357,0.0,0.0,80,0.00,,,-99.99,,2013-02-04 08:52:00,
2013-02-04 02:01:00,20.0,15.0,30.16,North,358,0.0,0.0,80,0.00,,,-99.99,,2013-02-04 09:01:00,
2013-02-04 02:11:00,20.0,15.0,30.16,North,358,0.0,0.0,80,0.00,,,-99.99,,2013-02-04 09:11:00,
2013-02-04 02:21:00,20.0,15.0,30.16,North,358,0.0,0.0,80,0.00,,,-99.99,,2013-02-04 09:21:00,
2013-02-04 02:31:00,19.0,14.0,30.16,North,358,0.0,0.0,81,0.00,,,-99.99,,2013-02-04 09:31:00,
2013-02-04 02:41:00,19.0,14.0,30.16,North,358,0.0,0.0,81,0.00,,,-99.99,,2013-02-04 09:41:00,
2013-02-04 02:52:00,20.0,15.0,30.18,North,357,0.0,0.0,82,0.00,,,-99.99,,2013-02-04 09:52:00,
2013-02-04 03:01:00,20.0,15.0,30.18,North,357,0.0,0.0,82,0.00,,,-99.99,,2013-02-04 10:01:00,
2013-02-04 03:11:00,20.0,15.0,30.18,North,357,0.0,0.0,82,0.00,,,-99.99,,2013-02-04 10:11:00,
2013-02-04 03:21:00,21.0,16.0,30.18,North,358,0.0,1.0,82,0.00,,,-99.99,,2013-02-04 10:21:00,
2013-02-04 03:32:00,21.0,16.0,30.18,North,358,0.0,1.0,82,0.00,,,-99.99,,2013-02-04 10:32:00,
2013-02-04 03:42:00,21.0,16.0,30.18,North,358,0.0,1.0,82,0.00,,,-99.99,,2013-02-04 10:42:00,
2013-02-04 03:52:00,20.0,15.0,30.18,North,358,0.0,2.0,82,0.00,,,-99.99,,2013-02-04 10:52:00,
2013-02-04 04:01:00,20.0,15.0,30.17,North,357,0.0,1.0,81,0.00,,,-99.99,,2013-02-04 11:01:00,
2013-02-04 04:11:00,20.0,15.0,30.17,North,357,0.0,1.0,81,0.00,,,-99.99,,2013-02-04 11:11:00,
2013-02-04 04:22:00,20.0,15.0,30.17,North,357,0.0,2.0,82,0.00,,,-99.99,,2013-02-04 11:22:00,
2013-02-04 04:32:00,20.0,15.0,30.17,North,358,0.0,1.0,82,0.00,,,-99.99,,2013-02-04 11:32:00,
2013-02-04 04:41:00,20.0,15.0,30.17,North,358,0.0,1.0,82,0.00,,,-99.99,,2013-02-04 11:41:00,
2013-02-04 04:52:00,18.0,13.0,30.17,North,358,0.0,1.0,81,0.00,,,-99.99,,2013-02-04 11:52:00,
2013-02-04 05:02:00,18.0,13.0,30.17,North,358,0.0,1.0,81,0.00,,,-99.99,,2013-02-04 12:02:00,
2013-02-04 05:12:00,18.0,13.0,30.17,North,358,0.0,1.0,81,0.00,,,-99.99,,2013-02-04 12:12:00,
2013-02-04 05:21:00,18.0,14.0,30.18,North,358,0.0,1.0,84,0.00,,,-99.99,,2013-02-04 12:21:00,
2013-02-04 05:32:00,19.0,15.0,30.18,North,358,0.0,0.0,83,0.00,,,-99.99,,2013-02-04 12:32:00,
2013-02-04 05:42:00,19.0,15.0,30.18,North,358,0.0,0.0,83,0.00,,,-99.99,,2013-02-04 12:42:00,
2013-02-04 05:52:00,19.0,15.0,30.17,North,357,0.0,2.0,83,0.00,,,-99.99,,2013-02-04 12:52:00,
2013-02-04 06:01:00,21.0,17.0,30.17,SSE,150,0.0,5.0,83,0.00,,,-99.99,,2013-02-04 13:01:00,
2013-02-04 06:11:00,24.0,20.0,30.18,ENE,63,1.0,6.0,83,0.00,,,-99.99,,2013-02-04 13:11:00,
2013-02-04 06:21:00,24.0,20.0,30.18,ENE,63,1.0,6.0,83,0.00,,,-99.99,,2013-02-04 13:21:00,
2013-02-04 06:32:00,24.0,20.0,30.18,ENE,63,1.0,6.0,83,0.00,,,-99.99,,2013-02-04 13:32:00,
2013-02-04 06:41:00,24.0,20.0,30.18,ENE,63,1.0,6.0,83,0.00,,,-99.99,,2013-02-04 13:41:00,
2013-02-04 06:52:00,26.0,19.0,30.17,SSE,154,1.0,7.0,76,0.00,,,-99.99,,2013-02-04 13:52:00,
2013-02-04 07:02:00,26.0,19.0,30.17,SSE,154,1.0,7.0,76,0.00,,,-99.99,,2013-02-04 14:02:00,
2013-02-04 07:21:00,25.0,18.0,30.17,ENE,70,0.0,5.0,75,0.00,,,-99.99,,2013-02-04 14:21:00,
2013-02-04 07:32:00,25.0,19.0,30.17,East,98,1.0,6.0,76,0.00,,,-99.99,,2013-02-04 14:32:00,
2013-02-04 07:42:00,25.0,19.0,30.17,East,98,1.0,6.0,76,0.00,,,-99.99,,2013-02-04 14:42:00,
2013-02-04 07:52:00,22.0,15.0,30.18,East,98,0.0,1.0,73,0.00,,,-99.99,,2013-02-04 14:52:00,
2013-02-04 08:02:00,20.0,14.0,30.18,NNW,347,0.0,1.0,76,0.00,,,-99.99,,2013-02-04 15:02:00,
2013-02-04 08:11:00,20.0,14.0,30.18,NNW,347,0.0,1.0,76,0.00,,,-99.99,,2013-02-04 15:11:00,
2013-02-04 08:22:00,20.0,14.0,30.17,WNW,297,0.0,2.0,77,0.00,,,-99.99,,2013-02-04 15:22:00,
2013-02-04 08:33:00,19.0,13.0,30.17,WNW,297,0.0,1.0,78,0.00,,,-99.99,,2013-02-04 15:33:00,
2013-02-04 08:42:00,19.0,13.0,30.17,WNW,297,0.0,1.0,78,0.00,,,-99.99,,2013-02-04 15:42:00,
2013-02-04 08:52:00,20.0,14.0,30.20,WNW,297,0.0,0.0,78,0.00,,,-99.99,,2013-02-04 15:52:00,
2013-02-04 09:01:00,21.0,15.0,30.20,WNW,297,0.0,2.0,76,0.00,,,-99.99,,2013-02-04 16:01:00,
2013-02-04 09:11:00,21.0,15.0,30.20,WNW,297,0.0,2.0,76,0.00,,,-99.99,,2013-02-04 16:11:00,
2013-02-04 09:21:00,21.0,14.0,30.19,WNW,297,0.0,3.0,74,0.00,,,-99.99,,2013-02-04 16:21:00,
2013-02-04 09:32:00,22.0,15.0,30.19,WSW,257,1.0,4.0,73,0.00,,,-99.99,,2013-02-04 16:32:00,
2013-02-04 09:42:00,22.0,15.0,30.19,WSW,257,1.0,4.0,73,0.00,,,-99.99,,2013-02-04 16:42:00,
2013-02-04 09:51:00,24.0,16.0,30.19,WSW,256,0.0,1.0,70,0.01,,,-99.99,,2013-02-04 16:51:00,
2013-02-04 10:01:00,29.0,17.0,30.19,SSE,155,1.0,2.0,60,0.01,,,-99.99,,2013-02-04 17:01:00,
2013-02-04 10:21:00,30.0,17.0,30.19,SSE,155,0.0,3.0,57,0.01,,,-99.99,,2013-02-04 17:21:00,
2013-02-04 10:31:00,30.0,17.0,30.19,SSE,155,1.0,2.0,57,0.01,,,-99.99,,2013-02-04 17:31:00,
2013-02-04 10:42:00,30.0,17.0,30.19,SSE,155,1.0,2.0,57,0.01,,,-99.99,,2013-02-04 17:42:00,
2013-02-04 10:51:00,31.0,18.0,30.20,SSW,193,0.0,2.0,57,0.00,,,-99.99,,2013-02-04 17:51:00,
2013-02-04 11:02:00,32.0,17.0,30.20,SSW,193,0.0,2.0,54,0.00,,,-99.99,,2013-02-04 18:02:00,
2013-02-04 11:11:00,32.0,17.0,30.20,SSW,193,0.0,2.0,54,0.00,,,-99.99,,2013-02-04 18:11:00,
2013-02-04 11:21:00,32.0,17.0,30.20,SSW,193,0.0,2.0,54,0.00,,,-99.99,,2013-02-04 18:21:00,
2013-02-04 11:31:00,34.0,18.0,30.19,SSW,193,0.0,3.0,52,0.00,,,0.07,,2013-02-04 18:31:00,
2013-02-04 11:41:00,34.0,18.0,30.19,SSW,193,0.0,3.0,52,0.00,,,0.07,,2013-02-04 18:41:00,
2013-02-04 11:52:00,38.0,21.0,30.20,East,81,5.0,11.0,49,0.00,,,0.07,,2013-02-04 18:52:00,
2013-02-04 12:01:00,38.0,21.0,30.20,East,81,5.0,11.0,49,0.00,,,0.07,,2013-02-04 19:01:00,
2013-02-04 12:11:00,38.0,21.0,30.20,East,81,5.0,11.0,49,0.00,,,0.07,,2013-02-04 19:11:00,
2013-02-04 12:21:00,37.0,21.0,30.19,ENE,75,5.0,14.0,52,0.00,,,0.05,,2013-02-04 19:21:00,
2013-02-04 12:31:00,37.0,21.0,30.19,ENE,75,5.0,14.0,52,0.00,,,0.05,,2013-02-04 19:31:00,
2013-02-04 12:42:00,37.0,21.0,30.19,ENE,75,5.0,14.0,52,0.00,,,0.05,,2013-02-04 19:42:00,
2013-02-04 12:52:00,38.0,20.0,30.18,ENE,68,6.0,12.0,48,0.00,,,0.05,,2013-02-04 19:52:00,
2013-02-04 13:01:00,38.0,19.0,30.18,East,85,7.0,15.0,46,0.00,,,0.05,,2013-02-04 20:01:00,
2013-02-04 13:11:00,38.0,19.0,30.18,East,85,7.0,15.0,46,0.00,,,0.05,,2013-02-04 20:11:00,
2013-02-04 13:21:00,38.0,20.0,30.17,ENE,76,7.0,12.0,47,0.01,,,0.05,,2013-02-04 20:21:00,
2013-02-04 13:31:00,38.0,20.0,30.17,ENE,76,7.0,12.0,47,0.01,,,0.05,,2013-02-04 20:31:00,
2013-02-04 13:42:00,38.0,20.0,30.17,ENE,76,7.0,12.0,47,0.01,,,0.05,,2013-02-04 20:42:00,
2013-02-04 13:52:00,39.0,19.0,30.16,ENE,72,6.0,11.0,44,0.01,,,0.05,,2013-02-04 20:52:00,
2013-02-04 14:01:00,38.0,19.0,30.16,East,79,5.0,15.0,46,0.01,,,0.05,,2013-02-04 21:01:00,
2013-02-04 14:11:00,38.0,19.0,30.16,East,79,5.0,15.0,46,0.01,,,0.05,,2013-02-04 21:11:00,
2013-02-04 14:22:00,38.0,19.0,30.16,ENE,77,7.0,13.0,46,0.00,,,0.04,,2013-02-04 21:22:00,
2013-02-04 14:31:00,38.0,19.0,30.16,NW,326,4.0,10.0,46,0.00,,,0.04,,2013-02-04 21:31:00,
2013-02-04 14:42:00,38.0,19.0,30.16,NW,326,4.0,10.0,46,0.00,,,0.04,,2013-02-04 21:42:00,
2013-02-04 14:51:00,39.0,19.0,30.16,ENE,74,5.0,12.0,44,0.00,,,0.04,,2013-02-04 21:51:00,
2013-02-04 15:02:00,40.0,18.0,30.16,ENE,58,4.0,10.0,41,0.00,,,0.04,,2013-02-04 22:02:00,
2013-02-04 15:11:00,40.0,18.0,30.16,ENE,58,4.0,10.0,41,0.00,,,0.04,,2013-02-04 22:11:00,
2013-02-04 15:21:00,41.0,18.0,30.15,East,81,2.0,10.0,39,0.00,,,0.04,,2013-02-04 22:21:00,
2013-02-04 15:32:00,41.0,18.0,30.15,East,81,2.0,10.0,39,0.00,,,0.04,,2013-02-04 22:32:00,
2013-02-04 15:41:00,41.0,18.0,30.15,East,81,2.0,10.0,39,0.00,,,0.04,,2013-02-04 22:41:00,
2013-02-04 15:52:00,39.0,17.0,30.16,ENE,76,4.0,7.0,41,0.00,,,0.04,,2013-02-04 22:52:00,
2013-02-04 16:01:00,40.0,18.0,30.14,ENE,71,5.0,9.0,40,0.00,,,0.00,,2013-02-04 23:01:00,
2013-02-04 16:11:00,40.0,18.0,30.14,ENE,71,5.0,9.0,40,0.00,,,0.00,,2013-02-04 23:11:00,
2013-02-04 16:21:00,37.0,16.0,30.16,ENE,74,4.0,7.0,42,0.00,,,0.00,,2013-02-04 23:21:00,
2013-02-04 16:31:00,37.0,16.0,30.16,ENE,74,4.0,7.0,42,0.00,,,0.00,,2013-02-04 23:31:00,
2013-02-04 16:41:00,37.0,16.0,30.16,ENE,74,4.0,7.0,42,0.00,,,0.00,,2013-02-04 23:41:00,
2013-02-04 16:52:00,35.0,17.0,30.15,ENE,65,2.0,4.0,48,0.00,,,0.00,,2013-02-04 23:52:00,
2013-02-04 17:01:00,34.0,17.0,30.16,ENE,71,2.0,4.0,50,0.00,,,0.00,,2013-02-05 00:01:00,
2013-02-04 17:11:00,34.0,17.0,30.16,ENE,71,2.0,4.0,50,0.00,,,0.00,,2013-02-05 00:11:00,
2013-02-04 17:21:00,33.0,17.0,30.14,East,79,4.0,5.0,51,0.00,,,0.00,,2013-02-05 00:21:00,
2013-02-04 17:31:00,33.0,16.0,30.14,ENE,77,3.0,7.0,50,0.00,,,0.00,,2013-02-05 00:31:00,
2013-02-04 17:41:00,33.0,16.0,30.14,ENE,77,3.0,7.0,50,0.00,,,0.00,,2013-02-05 00:41:00,
2013-02-04 17:52:00,33.0,16.0,30.14,ENE,77,3.0,7.0,50,0.00,,,0.00,,2013-02-05 00:52:00,
2013-02-04 18:01:00,33.0,16.0,30.14,ENE,77,3.0,7.0,50,0.00,,,0.00,,2013-02-05 01:01:00,
2013-02-04 18:11:00,33.0,16.0,30.14,ENE,77,3.0,7.0,50,0.00,,,0.00,,2013-02-05 01:11:00,
2013-02-04 18:21:00,32.0,17.0,30.14,ENE,72,4.0,5.0,53,0.00,,,0.00,,2013-02-05 01:21:00,
2013-02-04 18:32:00,32.0,17.0,30.14,ENE,72,4.0,5.0,53,0.00,,,0.00,,2013-02-05 01:32:00,
2013-02-04 18:42:00,32.0,17.0,30.14,ENE,72,4.0,5.0,53,0.00,,,0.00,,2013-02-05 01:42:00,
2013-02-04 18:51:00,32.0,17.0,30.14,ENE,72,4.0,5.0,53,0.00,,,0.00,,2013-02-05 01:51:00,
2013-02-04 23:52:00,23.0,16.0,30.16,ENE,78,1.0,2.0,73,-99.99,,,-99.99,,2013-02-05 06:52:00,